Time,TemperatureF,DewpointF,PressureIn,WindDirection,WindDirectionDegrees,WindSpeedMPH,WindSpeedGustMPH,Humidity,HourlyPrecipIn,Conditions,Clouds,dailyrainin,SoftwareType,DateUTC
2013-08-09 00:02:00,65.9,65.0,30.01,SSW,203,5.0,6.0,97,0.00,,,0.00,weatherlink.com 1.10,2013-08-09 04:02:00,
2013-08-09 00:17:00,65.9,65.0,30.01,SSW,204,3.0,5.0,97,0.00,,,0.00,weatherlink.com 1.10,2013-08-09 04:17:00,
2013-08-09 00:32:00,66.0,65.0,30.00,SSW,213,4.0,6.0,97,0.00,,,0.00,weatherlink.com 1.10,2013-08-09 04:32:00,
2013-08-09 00:47:00,65.9,65.0,30.01,SSW,206,5.0,8.0,97,0.00,,,0.00,weatherlink.com 1.10,2013-08-09 04:47:00,
2013-08-09 01:02:00,65.6,65.0,30.01,SSW,193,4.0,6.0,96,0.00,,,0.00,weatherlink.com 1.10,2013-08-09 05:02:00,
2013-08-09 01:17:00,65.4,65.0,30.00,SSW,204,3.0,6.0,97,0.00,,,0.00,weatherlink.com 1.10,2013-08-09 05:17:00,
2013-08-09 01:33:00,65.3,65.0,30.00,SSW,195,4.0,6.0,97,0.00,,,0.00,weatherlink.com 1.10,2013-08-09 05:33:00,
2013-08-09 01:48:00,65.6,65.0,30.00,SSW,204,5.0,7.0,97,0.00,,,0.00,weatherlink.com 1.10,2013-08-09 05:48:00,
2013-08-09 02:03:00,65.5,65.0,29.99,SSW,193,5.0,7.0,97,0.00,,,0.00,weatherlink.com 1.10,2013-08-09 06:03:00,
2013-08-09 02:18:00,65.9,65.0,29.99,SSW,195,8.0,10.0,97,0.00,,,0.00,weatherlink.com 1.10,2013-08-09 06:18:00,
2013-08-09 02:33:00,65.9,65.0,29.98,SSW,194,5.0,11.0,97,0.00,,,0.00,weatherlink.com 1.10,2013-08-09 06:33:00,
2013-08-09 02:48:00,65.8,65.0,29.98,SSW,193,6.0,9.0,97,0.00,,,0.00,weatherlink.com 1.10,2013-08-09 06:48:00,
2013-08-09 03:03:00,65.8,65.0,29.98,SSW,200,6.0,10.0,97,0.00,,,0.00,weatherlink.com 1.10,2013-08-09 07:03:00,
2013-08-09 03:18:00,66.0,65.0,29.98,South,190,7.0,10.0,97,0.00,,,0.00,weatherlink.com 1.10,2013-08-09 07:18:00,
2013-08-09 03:33:00,66.3,66.0,29.98,South,170,7.0,11.0,97,0.00,,,0.00,weatherlink.com 1.10,2013-08-09 07:33:00,
2013-08-09 03:48:00,66.0,65.0,29.97,South,177,8.0,11.0,97,0.00,,,0.00,weatherlink.com 1.10,2013-08-09 07:48:00,
2013-08-09 04:03:00,66.0,66.0,29.97,South,175,5.0,11.0,98,0.00,,,0.00,weatherlink.com 1.10,2013-08-09 08:03:00,
2013-08-09 04:18:00,65.9,65.0,29.97,SSE,167,10.0,12.0,98,0.00,,,0.00,weatherlink.com 1.10,2013-08-09 08:18:00,
2013-08-09 04:33:00,66.0,66.0,29.97,SE,146,9.0,12.0,98,0.00,,,0.00,weatherlink.com 1.10,2013-08-09 08:33:00,
2013-08-09 04:48:00,66.0,66.0,29.97,South,172,7.0,12.0,98,0.00,,,0.00,weatherlink.com 1.10,2013-08-09 08:48:00,
2013-08-09 05:03:00,65.8,65.0,29.96,SSE,167,8.0,13.0,98,0.00,,,0.00,weatherlink.com 1.10,2013-08-09 09:03:00,
2013-08-09 05:18:00,65.9,65.0,29.96,SSE,160,9.0,12.0,98,0.01,,,0.01,weatherlink.com 1.10,2013-08-09 09:18:00,
2013-08-09 05:33:00,65.8,65.0,29.96,SSE,153,7.0,12.0,98,0.01,,,0.01,weatherlink.com 1.10,2013-08-09 09:33:00,
2013-08-09 05:48:00,65.6,65.0,29.96,SSE,158,7.0,9.0,98,0.01,,,0.01,weatherlink.com 1.10,2013-08-09 09:48:00,
2013-08-09 06:03:00,65.4,65.0,29.96,SSE,152,8.0,12.0,98,0.05,,,0.05,weatherlink.com 1.10,2013-08-09 10:03:00,
2013-08-09 06:18:00,65.5,65.0,29.96,SE,142,7.0,11.0,98,0.23,,,0.24,weatherlink.com 1.10,2013-08-09 10:18:00,
2013-08-09 06:33:00,65.8,65.0,29.96,SSE,147,8.0,11.0,98,0.23,,,0.24,weatherlink.com 1.10,2013-08-09 10:33:00,
2013-08-09 06:48:00,65.8,65.0,29.95,SSE,166,7.0,11.0,98,0.23,,,0.24,weatherlink.com 1.10,2013-08-09 10:48:00,
2013-08-09 07:03:00,65.9,65.0,29.95,SSE,165,6.0,11.0,98,0.19,,,0.24,weatherlink.com 1.10,2013-08-09 11:03:00,
2013-08-09 07:18:00,65.6,65.0,29.95,SE,145,2.0,8.0,98,0.00,,,0.24,weatherlink.com 1.10,2013-08-09 11:18:00,
2013-08-09 07:33:00,65.2,65.0,29.95,SSE,158,8.0,10.0,98,0.00,,,0.24,weatherlink.com 1.10,2013-08-09 11:33:00,
2013-08-09 07:48:00,65.2,65.0,29.95,SSE,163,9.0,11.0,98,0.00,,,0.24,weatherlink.com 1.10,2013-08-09 11:48:00,
2013-08-09 08:03:00,65.3,65.0,29.95,SSE,159,5.0,11.0,99,0.00,,,0.24,weatherlink.com 1.10,2013-08-09 12:03:00,
2013-08-09 08:18:00,64.9,64.0,29.95,South,169,4.0,8.0,98,0.01,,,0.25,weatherlink.com 1.10,2013-08-09 12:18:00,
2013-08-09 08:33:00,65.1,65.0,29.96,SSE,161,5.0,7.0,99,0.01,,,0.25,weatherlink.com 1.10,2013-08-09 12:33:00,
2013-08-09 08:48:00,65.4,65.0,29.96,SSE,166,7.0,10.0,99,0.01,,,0.25,weatherlink.com 1.10,2013-08-09 12:48:00,
2013-08-09 09:03:00,65.7,65.0,29.95,SSE,147,6.0,11.0,99,0.01,,,0.25,weatherlink.com 1.10,2013-08-09 13:03:00,
2013-08-09 09:18:00,66.3,66.0,29.95,South,181,10.0,14.0,99,0.01,,,0.26,weatherlink.com 1.10,2013-08-09 13:18:00,
2013-08-09 09:33:00,66.0,66.0,29.95,SSE,152,8.0,15.0,98,0.05,,,0.30,weatherlink.com 1.10,2013-08-09 13:33:00,
2013-08-09 09:48:00,65.9,65.0,29.95,SSE,150,9.0,14.0,98,0.08,,,0.33,weatherlink.com 1.10,2013-08-09 13:48:00,
2013-08-09 10:03:00,65.7,65.0,29.94,SSE,150,6.0,13.0,98,0.13,,,0.38,weatherlink.com 1.10,2013-08-09 14:03:00,
2013-08-09 10:18:00,65.4,65.0,29.94,SSE,153,6.0,12.0,98,0.12,,,0.38,weatherlink.com 1.10,2013-08-09 14:18:00,
2013-08-09 10:33:00,65.5,65.0,29.94,South,170,6.0,11.0,99,0.08,,,0.38,weatherlink.com 1.10,2013-08-09 14:33:00,
2013-08-09 10:48:00,65.3,65.0,29.95,SSE,150,7.0,9.0,98,0.05,,,0.38,weatherlink.com 1.10,2013-08-09 14:48:00,
2013-08-09 11:03:00,65.3,65.0,29.95,SSE,165,5.0,7.0,98,0.01,,,0.39,weatherlink.com 1.10,2013-08-09 15:03:00,
2013-08-09 11:18:00,65.5,65.0,29.95,SE,146,4.0,7.0,99,0.01,,,0.39,weatherlink.com 1.10,2013-08-09 15:18:00,
2013-08-09 11:33:00,65.9,66.0,29.95,SSE,150,5.0,9.0,99,0.01,,,0.39,weatherlink.com 1.10,2013-08-09 15:33:00,
2013-08-09 11:48:00,66.0,66.0,29.94,SSE,149,6.0,8.0,99,0.02,,,0.40,weatherlink.com 1.10,2013-08-09 15:48:00,
2013-08-09 12:03:00,66.0,66.0,29.94,SSE,149,9.0,10.0,99,0.01,,,0.40,weatherlink.com 1.10,2013-08-09 16:03:00,
2013-08-09 12:18:00,65.8,66.0,29.94,SSE,148,8.0,10.0,99,0.01,,,0.40,weatherlink.com 1.10,2013-08-09 16:18:00,
2013-08-09 12:33:00,65.6,65.0,29.93,SSE,150,6.0,8.0,98,0.01,,,0.40,weatherlink.com 1.10,2013-08-09 16:33:00,
2013-08-09 12:50:00,65.9,66.0,29.93,SSE,153,5.0,8.0,99,0.00,,,0.40,weatherlink.com 1.10,2013-08-09 16:50:00,
2013-08-09 13:07:00,65.8,66.0,29.92,SSE,155,4.0,7.0,99,0.01,,,0.41,weatherlink.com 1.10,2013-08-09 17:07:00,
2013-08-09 13:26:00,66.2,66.0,29.92,SSE,163,5.0,8.0,99,0.01,,,0.41,weatherlink.com 1.10,2013-08-09 17:26:00,
2013-08-09 13:43:00,66.3,66.0,29.91,SSE,158,5.0,7.0,99,0.01,,,0.41,weatherlink.com 1.10,2013-08-09 17:43:00,
2013-08-09 14:01:00,67.1,67.0,29.90,SSE,149,6.0,11.0,99,0.01,,,0.42,weatherlink.com 1.10,2013-08-09 18:01:00,
2013-08-09 14:19:00,67.7,67.0,29.89,SE,141,10.0,15.0,99,0.01,,,0.42,weatherlink.com 1.10,2013-08-09 18:19:00,
2013-08-09 14:36:00,67.4,67.0,29.90,ESE,112,14.0,20.0,98,0.08,,,0.49,weatherlink.com 1.10,2013-08-09 18:36:00,
2013-08-09 14:55:00,66.6,66.0,29.89,South,170,11.0,24.0,96,0.10,,,0.52,weatherlink.com 1.10,2013-08-09 18:55:00,
2013-08-09 15:12:00,66.5,65.0,29.89,SE,146,11.0,18.0,96,0.18,,,0.60,weatherlink.com 1.10,2013-08-09 19:12:00,
2013-08-09 15:30:00,66.6,66.0,29.87,SE,135,3.0,10.0,97,0.26,,,0.72,weatherlink.com 1.10,2013-08-09 19:30:00,
2013-08-09 15:47:00,67.3,67.0,29.86,SSE,153,6.0,12.0,97,0.26,,,0.76,weatherlink.com 1.10,2013-08-09 19:47:00,
2013-08-09 16:06:00,67.3,67.0,29.85,SW,232,6.0,12.0,97,0.22,,,0.80,weatherlink.com 1.10,2013-08-09 20:06:00,
2013-08-09 16:24:00,67.1,66.0,29.84,SSE,161,11.0,17.0,97,0.11,,,0.82,weatherlink.com 1.10,2013-08-09 20:24:00,
2013-08-09 16:41:00,66.7,66.0,29.83,SSE,148,18.0,22.0,96,0.10,,,0.84,weatherlink.com 1.10,2013-08-09 20:41:00,
2013-08-09 16:59:00,67.1,66.0,29.82,SSE,165,4.0,13.0,96,0.07,,,0.86,weatherlink.com 1.10,2013-08-09 20:59:00,
2013-08-09 17:16:00,67.5,67.0,29.81,SE,132,12.0,19.0,97,0.05,,,0.86,weatherlink.com 1.10,2013-08-09 21:16:00,
2013-08-09 17:35:00,66.9,66.0,29.80,SSE,152,7.0,14.0,96,0.02,,,0.86,weatherlink.com 1.10,2013-08-09 21:35:00,
2013-08-09 17:53:00,65.4,64.0,29.80,SE,144,4.0,7.0,96,0.02,,,0.88,weatherlink.com 1.10,2013-08-09 21:53:00,
2013-08-09 18:10:00,65.5,65.0,29.79,SE,125,7.0,11.0,97,0.02,,,0.88,weatherlink.com 1.10,2013-08-09 22:10:00,
2013-08-09 18:28:00,65.6,65.0,29.78,SE,141,6.0,11.0,98,0.02,,,0.88,weatherlink.com 1.10,2013-08-09 22:28:00,
2013-08-09 18:46:00,66.7,66.0,29.77,SE,146,8.0,14.0,98,0.02,,,0.89,weatherlink.com 1.10,2013-08-09 22:46:00,
2013-08-09 19:04:00,66.8,66.0,29.76,SSE,158,11.0,17.0,97,0.01,,,0.89,weatherlink.com 1.10,2013-08-09 23:04:00,
2013-08-09 19:21:00,66.8,66.0,29.75,SSE,155,8.0,12.0,97,0.03,,,0.91,weatherlink.com 1.10,2013-08-09 23:21:00,
2013-08-09 19:39:00,66.6,66.0,29.74,SE,146,2.0,8.0,97,0.02,,,0.91,weatherlink.com 1.10,2013-08-09 23:39:00,
2013-08-09 19:58:00,66.4,66.0,29.72,East,100,3.0,7.0,97,0.02,,,0.91,weatherlink.com 1.10,2013-08-09 23:58:00,
2013-08-09 20:15:00,66.3,66.0,29.71,SE,145,2.0,4.0,97,0.00,,,0.91,weatherlink.com 1.10,2013-08-10 00:15:00,
2013-08-09 20:33:00,66.1,65.0,29.69,ESE,113,5.0,6.0,97,0.00,,,0.91,weatherlink.com 1.10,2013-08-10 00:33:00,
2013-08-09 20:50:00,66.1,65.0,29.70,SSW,208,0.0,1.0,97,0.00,,,0.91,weatherlink.com 1.10,2013-08-10 00:50:00,
2013-08-09 21:07:00,66.1,66.0,29.71,SSW,211,0.0,1.0,98,0.00,,,0.91,weatherlink.com 1.10,2013-08-10 01:07:00,
2013-08-09 21:22:00,65.9,65.0,29.70,SSW,211,0.0,1.0,98,0.00,,,0.91,weatherlink.com 1.10,2013-08-10 01:22:00,
2013-08-09 21:37:00,65.9,65.0,29.70,SSW,211,0.0,0.0,98,0.00,,,0.91,weatherlink.com 1.10,2013-08-10 01:37:00,
2013-08-09 21:52:00,65.9,65.0,29.70,SSW,211,0.0,0.0,98,0.00,,,0.91,weatherlink.com 1.10,2013-08-10 01:52:00,
2013-08-09 22:07:00,66.0,66.0,29.71,SSW,211,0.0,0.0,98,0.00,,,0.91,weatherlink.com 1.10,2013-08-10 02:07:00,
2013-08-09 22:22:00,66.2,66.0,29.70,SW,220,0.0,1.0,98,0.00,,,0.91,weatherlink.com 1.10,2013-08-10 02:22:00,
2013-08-09 22:37:00,66.5,66.0,29.70,SW,235,0.0,2.0,98,0.00,,,0.91,weatherlink.com 1.10,2013-08-10 02:37:00,
2013-08-09 22:52:00,66.6,66.0,29.70,SW,231,0.0,0.0,98,0.00,,,0.91,weatherlink.com 1.10,2013-08-10 02:52:00,
2013-08-09 23:07:00,66.7,66.0,29.70,South,188,0.0,0.0,98,0.00,,,0.91,weatherlink.com 1.10,2013-08-10 03:07:00,
2013-08-09 23:22:00,66.7,66.0,29.70,South,190,0.0,1.0,98,0.00,,,0.91,weatherlink.com 1.10,2013-08-10 03:22:00,
2013-08-09 23:37:00,67.0,67.0,29.70,SSW,198,0.0,0.0,98,0.00,,,0.91,weatherlink.com 1.10,2013-08-10 03:37:00,
2013-08-09 23:52:00,66.9,66.0,29.70,SSW,195,0.0,1.0,98,0.00,,,0.91,weatherlink.com 1.10,2013-08-10 03:52:00,